Regional Weather Roundup
Issued by NWS

Home | Current Version | Previous Version | Graphics & Text | Print | Product List | Glossary On
Versions: 1 2 3 4 5 6 7 8 9 10 11 12 13 14 15 16 17 18 19 20 21 22 23 24 25 26 27 28 29 30 31 32 33 34 35 36 37 38 39 40 41 42 43 44 45 46 47 48 49 50
000
ASUS43 KDTX 040910
RWRMI
MICHIGAN HOURLY REGIONAL WEATHER ROUNDUP
NATIONAL WEATHER SERVICE DETROIT/PONTIAC MI
500 AM EDT SAT JUL 04 2015

NOTE: "FAIR" INDICATES FEW OR NO CLOUDS BELOW 12,000 FEET WITH NO
SIGNIFICANT WEATHER AND/OR OBSTRUCTION TO VISIBILITY.

MIZ047>049-052>055-059>063-066>070-074>076-081>083-041000-
SOUTHEAST LOWER MICHIGAN

CITY           SKY/WX    TMP DP  RH WIND       PRES   REMARKS
ADRIAN         CLEAR     54  53  97 CALM      29.95S
ALMA           CLEAR     51  50  98 CALM      29.94S
ANN ARBOR      FOG       47  46  97 CALM      29.94S VSB 1/4
BAD AXE        PTCLDY    50  48  93 CALM      29.93F
CARO           PTCLDY    47  47  98 CALM      29.93S
DETROIT CITY   CLEAR     58  52  80 CALM      29.93S
DETROIT        CLEAR     59  54  83 CALM      29.94S
FLINT          CLEAR     52  49  89 CALM      29.94S
GROSSE ILE     CLEAR     59  54  82 NW3       29.92S
HILLSDALE      CLEAR     54  54 100 CALM      29.96R FOG
HOWELL         CLEAR     53  52  95 CALM      29.94R

CITY           SKY/WX    TMP DP  RH WIND       PRES   REMARKS
JACKSON        CLEAR     52  51  97 CALM      29.95R
LAMBERTVILLE     N/A     55  52  90 CALM      29.94S FOG
LANSING        CLEAR     53  50  89 CALM      29.95R FOG
LAPEER         FAIR      46  45  96 CALM      29.94S FOG
MASON          CLEAR     50  50  98 CALM      29.95R FOG
MONROE         CLEAR     55  54  98 CALM      29.92S
MT. CLEMENS    CLEAR     54  52  94 NW2       29.91S
PONTIAC        CLEAR     53  52  96 CALM      29.93S FOG
PORT HOPE        N/A     60  52  74 SW8       29.91S
PORT HURON     FOG       50  50 100 CALM      29.93S VSB 1/2
TRI CITIES     PTCLDY    59  50  72 CALM      29.94S
MIDLAND        FAIR      50  49  95 CALM      29.92S
TROY           CLEAR     58  54  85 CALM      29.95R
SAGINAW HB     CLEAR     54  52  94 CALM      29.93S
$$
MIZ043>046-050>051-056>058-064>065-071>073-077>080-041000-
SOUTHWEST LOWER MICHIGAN

CITY           SKY/WX    TMP DP  RH WIND       PRES   REMARKS
BATTLE CREEK   CLEAR     55  52  89 CALM      29.96R
BENTON HARBOR  CLEAR     51  49  92 CALM      29.95S FOG
BIG RAPIDS     PTCLDY    51  47  88 CALM      29.94S
COLDWATER      CLEAR     54  53  98 CALM      29.95S FOG
FREMONT        FAIR      51  50  97 CALM      29.95R
HOLLAND        CLEAR     53  50  89 CALM      29.96R
GRAND RAPIDS   CLEAR     55  52  89 CALM      29.95R
IONIA          FAIR      55  54  96 CALM      29.94R
KALAMAZOO      CLEAR     54  52  93 CALM      29.95S FOG
LUDINGTON      PTCLDY    61  54  77 SW6       29.93S
MARSHALL       CLEAR     52  51  95 CALM      29.95R
MOUNT PLEASANT CLEAR     52  51  95 CALM      29.93S FOG
MUSKEGON       CLEAR     52  49  89 CALM      29.95S
SOUTH HAVEN    CLEAR     51  49  94 CALM      29.96R
$$
MIZ016>042-041000-
NORTHERN LOWER MICHIGAN

CITY           SKY/WX    TMP DP  RH WIND       PRES   REMARKS
ALPENA         MOCLDY    58  53  84 CALM      29.91S
BEAVER ISLAND  CLEAR     53  50  89 W5        29.91S
BELLAIRE       MOCLDY    58  52  80 CALM      29.91S
CADILLAC       CLOUDY    54  52  92 CALM      29.93S
CHARLEVOIX     PTCLDY    60  50  68 CALM      29.93S
FRANKFORT      PTCLDY    63  49  59 CALM      29.91F
GAYLORD        PTCLDY    58  49  72 SW3       29.92S
GRAYLING       MOCLDY    58  51  77 CALM      29.94R
HARBOR SPRINGS PTCLDY    56  51  84 CALM      29.91R
HOUGHTON LAKE  CLOUDY    62  51  67 W6        29.94R
MANISTEE       CLEAR    N/A N/A N/A E5        29.92F
OSCODA         PTCLDY    58  48  67 SW7       29.91S
PELLSTON       CLEAR     52  50  93 CALM      29.91R
ROGERS CITY    CLOUDY    61  55  80 CALM      29.91R
TRAVERSE CITY  MOCLDY    62  47  57 CALM      29.89S
$$
MIZ007>008-015-041000-
EASTERN UPPER MICHIGAN

CITY           SKY/WX    TMP DP  RH WIND       PRES   REMARKS
KINROSS        CLEAR     54  48  82 W5        29.90S
MACKINAC ISLAN CLEAR     58  51  77 W8        29.90S
NEWBERRY       FOG       47  47 100 CALM      29.90S VSB 3/4
S. S. MARIE    CLEAR     53  49  86 W3        29.89R
MUNISING         N/A     55  53  93 S5        29.91R
$$
MIZ004>006-011>014-085-041000-
CENTRAL UPPER MICHIGAN

CITY           SKY/WX    TMP DP  RH WIND       PRES   REMARKS
MANISTIQUE     PTCLDY    47  47  97 N5        29.90S FOG
ESCANABA       CLEAR     57  57 100 N5        29.90R
MENOMINEE      PTCLDY    57  54  88 CALM      29.89S
SAWYER-GWINN   CLEAR     52  51  95 CALM      29.93R FOG
$$
MIZ001>003-009>011-084-041000-
WESTERN UPPER MICHIGAN

CITY           SKY/WX    TMP DP  RH WIND       PRES   REMARKS
IRON MOUNTAIN  MOCLDY    58  56  93 NW3       29.92R
HOUGHTON       CLEAR     56  53  90 CALM      29.92R
COPPER HARBOR    N/A     54  52  93 CALM      29.92R
IRONWOOD         N/A     52  52 100 CALM      29.91R VSB 1/2
$$

ABBREVIATIONS USED IN REMARKS
   TC - TEMPERATURE IN CELSIUS
  WCI - WIND CHILL INDEX
   HX - HEAT INDEX
  VSB - VISIBILITY



USA.gov is the U.S. government's official web portal to all federal, state and local government web resources and services.